This demonstration page uses our WeatherBlox Daily Observations layout. Learn more.

Left ArrowRight Arrow

41.12389, -100.76542

Hourly Observations for August 2, 2019

Temp ( °F °C ) Dew Point ( °F °C ) Humidity (%) Winds ( mph kmh ) Pressure ( in mb ) Visibility ( mi km ) Precip ( " mm )
12:03 am 00:03 Cloudy 72 22.2 69 20.6 91 91 Calm 29.99 1016 10 16 0.00 0.00
12:53 am 00:53 Cloudy 72 22.2 69 20.6 91 91 Calm 30.06 1018 10 16 0.00 0.00
1:32 am 01:32 Mostly Cloudy 71 21.7 69 20.6 94 94 SE 3 6 29.98 1015 10 16 0.00 0.00
1:53 am 01:53 Cloudy 72 22.2 69 20.6 91 91 SE 5 7 30.03 1017 10 16 0.00 0.00
2:20 am 02:20 Partly Cloudy 71 21.7 69 20.6 94 94 ESE 3 6 29.95 1014 10 16 0.00 0.00
2:53 am 02:53 Cloudy 71 21.7 69 20.6 94 94 SSE 3 6 30.01 1016 10 16 0.00 0.00
3:18 am 03:18 Mostly Cloudy 71 21.7 69 20.6 94 94 SE 5 7 29.96 1015 10 16 0.00 0.00
3:37 am 03:37 Cloudy 71 21.7 69 20.6 94 94 Calm 29.95 1014 10 16 0.00 0.00
3:53 am 03:53 Cloudy 71 21.7 69 20.6 94 94 ESE 5 7 30.01 1016 10 16 0.00 0.00
4:10 am 04:10 Cloudy 71 21.7 68 20 90 90 ESE 5 7 29.95 1014 10 16 0.00 0.00
4:45 am 04:45 Cloudy 71 21.7 69 20.6 94 94 Calm 29.94 1014 10 16 0.00 0.00
4:53 am 04:53 Cloudy 71 21.7 69 20.6 94 94 Calm 29.98 1015 10 16 0.00 0.00
5:53 am 05:53 Cloudy 71 21.7 68 20 90 90 ESE 5 7 30.00 1016 10 16 0.00 0.00
6:27 am 06:27 Cloudy 70 21.1 68 20 93 93 ESE 9 15 29.96 1015 8 13 0.00 0.00
6:53 am 06:53 Cloudy 70 21.1 68 20 93 93 SE 7 11 30.02 1017 8 13 0.00 0.00
7:51 am 07:51 Cloudy with Mist and Fog 70 21 68 20 94 94 SSE 3 6 29.97 1015 3 4 0.00 0.00
7:53 am 07:53 Cloudy with Mist and Fog 70 21.1 68 20 93 93 SSE 3 6 30.02 1017 3 4 0.00 0.00
8:17 am 08:17 Cloudy with Mist and Fog 70 21.1 68 20 93 93 SSW 3 6 29.97 1015 3 5 0.00 0.00
8:24 am 08:24 Cloudy with Mist and Fog 70 21.1 68 20 93 93 Calm 29.98 1015 3 4 0.00 0.00
8:37 am 08:37 Cloudy with Mist and Fog 70 21.1 68 20 93 93 Calm 29.98 1015 3 5 0.00 0.00
8:53 am 08:53 Cloudy with Mist and Fog 71 21.7 69 20.6 94 94 WSW 5 7 30.03 1017 5 8 0.00 0.00
9:46 am 09:46 Cloudy 72 22.2 69 20.6 91 91 S 7 11 29.96 1015 10 16 0.00 0.00
9:53 am 09:53 Cloudy 73 22.8 69 20.6 87 87 S 10 17 30.01 1016 10 16 0.00 0.00
10:53 am 10:53 Cloudy 73 22.8 70 21.1 90 90 SSW 8 13 30.01 1016 10 16 0.00 0.00
11:48 am 11:48 Cloudy 75 24 70 21 83 83 WSW 6 9 29.95 1014 10 16 0.00 0.00
11:53 am 11:53 Cloudy 74 23.3 69 20.6 85 85 SW 5 7 30.02 1017 10 16 0.00 0.00
12:24 pm 12:24 Cloudy 76 24.4 70 21.1 82 82 W 6 9 29.95 1014 10 16 0.00 0.00
12:32 pm 12:32 Cloudy 76 24.4 70 21.1 82 82 W 7 11 29.95 1014 10 16 0.00 0.00
12:41 pm 12:41 Cloudy 77 25 70 21.1 79 79 W 6 9 29.94 1014 10 16 0.00 0.00
12:53 pm 12:53 Cloudy with Light Rain 76 24.4 70 21.1 82 82 WNW 3 6 30.02 1017 10 16 0.00 0.00
1:17 pm 13:17 Mostly Cloudy 77 25 71 21.7 82 82 W 3 6 29.92 1013 10 16 0.00 0.00
1:53 pm 13:53 Mostly Sunny 82 27.8 70 21.1 67 67 VRB 5 7 29.99 1016 10 16 0.00 0.00
2:53 pm 14:53 Mostly Sunny 83 28.3 71 21.7 67 67 SSW 5 7 29.97 1015 10 16 0.00 0.00
3:53 pm 15:53 Mostly Sunny 84 28.9 71 21.7 65 65 VRB 5 7 29.95 1014 10 16 0.00 0.00
4:53 pm 16:53 Mostly Sunny 81 27.2 71 21.7 72 72 Calm 29.95 1014 10 16 0.00 0.00
5:53 pm 17:53 Sunny 85 29.4 69 20.6 59 59 Calm 29.95 1014 10 16 0.00 0.00
6:48 pm 18:48 Mostly Cloudy with Nearby Thunderstorms 73 23 66 19 78 78 ESE 20 31 29.92 1013 10 16 0.00 0.00
6:53 pm 18:53 Mostly Cloudy with Nearby Thunderstorms 73 22.8 66 18.9 79 79 E 16 26 29.99 1016 10 16 0.00 0.00
7:10 pm 19:10 Mostly Cloudy with Thunderstorms 73 22.8 66 18.9 79 79 E 10 17 29.93 1014 10 16 0.00 0.00
7:25 pm 19:25 Mostly Cloudy with Nearby Thunderstorms 72 22.2 66 18.9 82 82 NE 22 35 29.97 1015 10 16 0.00 0.00
7:53 pm 19:53 Mostly Cloudy with Nearby Thunderstorms 69 20.6 65 18.3 87 87 ESE 15 24 30.01 1016 10 16 0.02 0.51
8:04 pm 20:04 Mostly Cloudy 70 21.1 66 18.9 87 87 SE 14 22 29.95 1014 10 16 0.00 0.00
8:53 pm 20:53 Mostly Cloudy 69 20.6 65 18.3 87 87 ESE 5 7 30.01 1016 10 16 0.00 0.00
9:53 pm 21:53 Clear 65 18.3 63 17.2 93 93 NNE 5 7 30.02 1017 10 16 0.00 0.00
10:53 pm 22:53 Clear 63 17.2 61 16.1 93 93 WNW 5 7 30.05 1018 10 16 0.00 0.00
11:04 pm 23:04 Mostly Clear 64 17.8 61 16.1 90 90 N 3 6 30.02 1017 10 16 0.00 0.00
11:53 pm 23:53 Clear 63 17.2 61 16.1 93 93 Calm 30.06 1018 10 16 0.00 0.00

Powered by AerisWeather